Location: Banios
(43.0451°N, 0.2335°E)
Time: 06:28:56
(UTC+00:00)

NOSS 3-2 (A) - Visible Passes

Search period start: 11 May 2021 00:00
Search period end: 21 May 2021 00:00
Orbit: 779 x 1428 km, 63.4° (Epoch: 18 April)

Date Brightness Start Highest point End Pass type
(mag) Time Alt. Az. Time Alt. Az. Time Alt. Az.
11 May 5.5 03:04:33 10° SSE 03:08:08 18° ESE 03:11:58 10° ENE visible
12 May 3.6 04:07:10 10° SSW 04:12:37 71° ESE 04:18:53 10° NE visible
13 May 4.3 03:22:19 10° S 03:27:26 41° ESE 03:33:10 10° NE visible
14 May 5.0 02:38:04 10° SSE 02:42:24 24° ESE 02:47:07 10° ENE visible
15 May 5.5 01:55:00 10° SE 01:57:31 13° ESE 02:00:09 10° ENE visible
15 May 3.4 03:41:34 10° SW 03:47:06 90° NW 03:53:29 10° NE visible
16 May 3.8 02:57:40 17° SSW 03:01:49 55° ESE 03:07:53 10° NE visible
17 May 4.5 02:13:45 20° SSE 02:16:42 32° ESE 02:22:02 10° NE visible
17 May 4.0 04:01:49 10° WSW 04:07:13 46° NW 04:13:28 10° NNE visible
18 May 5.0 01:29:48 16° SE 01:31:44 18° ESE 01:35:41 10° ENE visible
18 May 3.4 03:17:11 16° SW 03:21:39 71° NW 03:28:04 10° NNE visible
19 May 3.4 02:33:11 28° SSW 02:36:15 73° ESE 02:42:32 10° NE visible
20 May 4.0 01:49:09 32° SSE 01:51:02 43° ESE 01:56:50 10° NE visible
20 May 4.3 03:36:39 10° WSW 03:41:55 37° NW 03:47:58 10° NNE visible
